Temp
18 18 18 18 18 17 18 18 17 16 17 17 17 18 18 19 20 18 18 17 17 17 17 17 17 16 17 17 17 17 17 16 16
17 18 18 18 18 18 17 17 16 17 16 17 17 18 18 19 19 18 18 17 17 17 16 16 16 16 15 16 16 16 16 16 16
17 17 17 17 17 17 17 17 16 16 17 17 17 18 18 20 20 19 18 16 16 16 16 16 16 15 15 15 15 15 15 15 15
17 17 17 17 17 16 16 16 16 17 17 17 18 18 19 20 20 19 17 16 16 16 15 15 15 14 14 14 14 14 14 14 14
16 17 17 17 16 16 16 16 17 17 17 17 17 18 19 19 19 18 16 16 16 15 15 14 14 14 14 13 13 13 13 13 13
18 17 17 17 17 17 17 17 17 17 17 17 17 18 19 19 19 18 16 15 15 15 14 14 13 13 13 13 13 13 13 12 12
19 17 17 17 17 17 17 17 17 17 17 17 17 18 19 19 19 16 16 15 15 14 14 13 13 13 13 13 12 12 12 12 12
19 17 16 17 17 17 16 17 17 18 19 18 19 19 19 19 18 16 15 14 14 14 13 13 13 12 12 12 12 12 11 11 11
19 19 18 18 18 18 18 18 18 18 18 19 19 18 18 18 18 16 15 14 14 14 13 13 12 12 12 12 11 11 11 11 11
20 20 20 20 20 19 20 20 19 18 18 19 19 18 18 18 18 17 15 14 14 13 13 13 12 12 12 11 11 11 10 10 10
20 20 20 20 20 20 20 19 19 19 18 18 18 18 18 18 17 17 14 13 13 13 13 13 12 12 12 11 11 10 10 10 10
20 20 20 20 20 20 19 19 19 19 18 18 18 18 18 17 17 17 15 13 13 13 12 12 12 12 12 11 11 10 10 10 9
20 20 20 20 20 19 19 19 19 18 18 18 17 17 17 17 17 16 16 14 13 12 12 12 12 11 11 11 11 10 10 10 9
20 20 19 20 20 19 19 19 18 18 18 18 17 16 16 16 16 16 15 15 14 13 12 11 11 11 11 11 10 10 9 9 9
20 19 20 20 19 19 18 18 18 18 18 17 17 16 16 16 15 15 15 14 13 13 12 11 11 11 10 10 10 9 9 9 9
19 19 19 19 19 19 17 18 18 17 17 17 16 16 15 15 15 15 14 13 12 12 12 11 11 11 11 10 10 10 9 9 8
19 19 18 19 19 19 18 17 17 17 17 16 16 15 15 14 14 14 14 13 12 12 12 11 11 11 10 10 10 10 9 9 8
19 18 18 18 19 19 18 17 17 16 16 16 17 16 16 14 14 13 13 13 12 12 11 11 11 10 10 9 9 9 9 9 7
16 17 17 17 18 18 18 18 16 16 15 14 16 17 16 15 12 12 12 12 12 12 11 11 10 10 9 9 8 7 8 7 6
16 15 16 16 16 16 17 17 17 15 16 14 14 14 14 13 15 12 10 10 11 11 10 10 9 8 8 7 7 7 7 6 5
Height
823 824 824 825 827 829 831 832 834 835 836 836 837 837 838 837 839 839 839 838 839 839 837 839 840 840 839 839 840 838 840 841 841
825 825 826 828 829 831 832 833 835 836 837 838 838 839 839 839 841 841 841 842 841 842 841 841 842 842 842 842 842 841 841 842 842
825 827 829 830 831 832 834 835 836 837 838 839 839 840 840 841 842 842 843 844 843 844 844 844 844 844 844 845 844 845 844 844 844
826 828 830 831 832 834 835 836 837 838 839 839 840 841 841 842 843 843 844 845 845 845 846 846 846 846 846 846 846 846 847 846 846
827 828 830 831 833 835 836 837 838 839 840 840 840 842 842 844 845 845 845 847 847 847 848 848 848 847 848 848 848 847 848 849 847
827 829 830 831 833 835 837 838 839 840 841 841 841 842 843 844 845 844 845 847 848 849 849 849 850 849 849 849 850 849 848 849 849
828 829 830 832 833 835 837 838 840 841 842 842 842 842 844 844 845 845 846 848 849 850 850 850 851 851 850 850 851 850 849 849 850
829 829 830 832 833 835 836 837 839 840 842 842 843 843 845 845 846 845 846 848 849 850 850 851 852 852 852 851 852 851 851 851 851
828 829 830 831 832 834 835 836 838 840 841 841 842 843 843 844 845 844 846 847 848 848 850 850 851 851 852 852 852 852 852 852 852
824 827 828 830 830 831 832 834 836 838 839 840 841 842 842 843 844 844 845 846 847 848 849 850 850 851 852 852 852 852 853 853 853
822 824 826 828 829 829 830 831 833 835 837 838 839 840 840 841 842 843 843 846 846 848 848 849 850 852 852 853 852 852 852 852 853
817 819 821 824 826 827 829 829 830 832 834 836 837 839 839 840 841 842 842 845 846 847 848 849 849 851 852 853 853 852 852 852 852
812 814 816 818 821 823 826 827 828 830 831 832 834 836 837 838 838 839 840 841 843 845 846 847 847 849 850 851 853 852 852 852 852
810 811 812 814 816 818 822 823 824 826 827 829 830 831 834 835 836 837 838 839 840 842 843 844 846 846 848 850 851 851 851 851 852
804 806 808 809 811 812 815 819 820 822 823 826 828 828 830 832 832 834 835 835 836 839 838 840 842 843 844 846 849 850 849 850 850
798 800 802 804 805 807 809 813 815 818 819 823 825 826 826 828 829 829 830 831 832 834 836 836 839 839 841 841 843 846 847 847 848
791 793 795 796 799 802 803 807 809 812 814 816 820 822 825 823 823 824 825 827 827 829 830 832 834 836 836 837 837 840 842 844 845
786 788 790 791 792 793 795 799 801 804 807 808 809 813 811 813 816 818 820 822 823 824 826 826 828 831 833 834 835 837 838 840 842
780 782 784 785 787 788 789 791 793 798 799 804 802 801 803 805 814 815 816 817 819 820 822 823 822 825 828 829 831 833 835 836 838
773 775 778 779 780 780 783 784 785 787 792 793 795 799 800 800 801 807 810 813 813 815 818 820 820 822 824 825 826 829 832 833 833
Wind_Speed
10 12 13 13 16 13 10 8 8 8 8 8 7 7 8 8 7 11 8 10 8 12 13 12 9 10 11 4 4 4 3 4 5
10 9 10 10 10 9 8 7 8 8 7 6 6 5 7 5 8 11 12 13 15 15 17 16 15 14 15 16 18 21 15 8 8
9 8 7 6 7 7 6 7 7 7 6 5 5 7 8 5 6 8 10 11 12 11 11 11 9 11 12 13 12 13 15 16 16
8 8 7 8 7 6 6 7 6 6 5 4 4 6 6 3 6 7 10 10 11 9 10 10 11 11 12 11 12 13 13 14 14
8 10 8 8 7 6 6 6 6 5 4 4 5 7 7 4 4 6 8 8 8 8 8 9 10 10 11 11 11 12 13 13 13
6 9 9 9 7 8 7 6 5 4 4 4 6 7 2 3 3 4 5 6 7 7 8 8 9 10 10 10 10 11 12 12 12
9 9 10 10 9 9 10 8 6 6 4 5 7 3 4 3 3 5 4 7 7 7 7 7 8 8 9 9 9 10 10 10 10
11 9 11 10 12 10 10 10 8 7 7 6 6 4 3 3 3 4 7 8 6 6 7 7 7 7 8 8 8 9 9 9 9
12 12 12 13 13 14 12 10 10 9 9 8 7 6 5 5 4 5 10 9 8 7 7 7 6 7 7 7 7 8 8 8 8
14 14 13 14 14 15 14 12 11 11 10 9 8 7 6 6 5 5 12 11 8 8 8 7 6 6 6 6 6 7 7 7 7
16 15 15 15 15 15 15 14 13 12 11 10 9 8 8 7 7 6 10 11 9 8 8 8 7 6 5 5 5 5 6 6 5
18 18 18 17 16 16 15 15 14 13 11 11 10 9 9 8 8 8 9 12 12 10 9 8 8 7 5 4 4 3 3 3 3
21 21 20 19 18 18 17 16 15 14 13 13 12 11 10 10 11 11 10 11 10 14 11 10 9 9 7 6 4 3 2 2 1
22 22 21 20 20 21 19 18 18 17 16 15 13 12 11 12 12 12 13 13 13 11 15 14 11 11 8 7 6 4 2 1 2
26 24 23 22 22 21 24 21 20 19 17 15 13 12 12 13 14 14 15 15 17 15 14 17 17 15 11 9 7 5 3 3 3
27 27 25 25 25 25 26 24 21 20 17 14 12 12 13 14 16 16 17 18 18 19 17 14 14 16 16 14 13 11 8 6 6
27 29 29 28 27 27 26 28 23 22 22 17 12 4 10 17 19 19 19 19 20 21 21 19 17 13 12 15 16 14 11 8 4
26 28 29 28 28 28 29 30 29 24 24 25 10 4 5 10 17 21 20 20 22 23 22 22 20 19 15 15 15 14 12 9 5
33 29 29 30 28 28 29 30 32 26 25 24 27 17 4 3 3 12 19 19 21 22 22 24 24 22 19 16 14 13 11 9 5
26 29 31 30 30 33 31 30 33 34 26 28 16 20 13 9 4 4 7 17 20 20 20 23 20 21 19 17 18 17 14 10 6
Wind_Direction
110 109 109 120 124 122 120 111 117 117 112 103 105 106 92 71 73 73 72 61 96 63 83 107 79 69 63 79 30 334 152 72 61
124 126 116 114 124 124 119 114 120 122 120 114 100 113 96 83 80 64 73 73 76 69 72 78 73 67 60 61 58 63 76 89 71
145 149 148 140 133 128 122 120 125 131 134 135 114 111 121 86 89 84 76 82 76 71 72 72 75 65 64 63 68 70 70 71 69
169 175 181 164 149 140 133 134 139 142 151 154 152 134 123 107 95 92 102 91 88 85 80 76 74 73 75 73 70 68 66 65 66
179 187 182 169 164 159 152 163 159 164 171 163 156 146 124 103 120 107 104 94 95 95 86 81 83 83 81 77 74 72 65 65 67
189 178 197 169 165 156 167 199 188 185 193 173 149 143 177 150 136 125 143 105 105 102 101 89 85 86 84 81 76 72 71 66 64
177 183 189 160 170 175 196 207 201 155 175 180 166 188 184 172 158 133 157 118 114 113 107 98 92 90 88 85 81 78 75 70 64
187 190 187 184 192 187 202 211 202 205 197 186 199 194 199 193 174 164 170 140 130 127 122 111 103 96 90 87 79 75 71 70 68
202 202 197 196 197 203 198 203 207 206 203 203 206 203 200 199 190 200 184 164 146 140 141 133 122 112 102 94 89 78 69 67 64
207 210 207 207 203 208 207 211 211 210 209 209 208 207 202 201 196 197 188 192 174 157 153 151 146 136 124 112 104 90 75 68 64
213 213 216 217 217 216 215 212 213 213 210 210 210 210 204 204 197 191 182 201 201 175 169 168 161 158 140 127 118 101 88 73 61
213 215 217 218 221 223 221 219 214 213 209 211 209 210 209 205 200 194 190 194 208 198 186 181 176 172 170 156 142 125 94 78 57
213 214 220 219 219 220 224 220 216 216 210 209 207 210 208 208 203 197 194 195 198 204 199 189 186 182 181 179 174 159 124 63 22
222 220 219 220 220 220 224 220 217 215 212 213 208 206 209 210 207 204 202 201 199 203 212 209 194 192 186 185 185 187 189 314 346
221 224 225 221 219 217 219 222 216 219 210 213 211 207 211 211 209 210 207 207 203 200 217 211 210 215 203 195 202 210 219 257 289
223 221 224 222 221 219 215 221 217 217 211 196 210 217 216 217 216 211 210 209 206 204 205 211 204 225 219 218 224 232 239 258 276
225 223 222 221 220 223 213 217 213 213 204 194 182 197 215 227 219 215 211 211 208 207 207 206 204 214 227 229 231 236 246 257 260
232 229 229 226 222 221 219 212 212 209 204 200 184 202 226 161 206 213 214 214 211 209 211 206 208 206 207 228 237 238 241 245 247
237 237 235 231 228 228 224 218 214 209 206 205 223 240 185 185 170 219 219 217 217 211 212 209 207 209 207 222 219 231 228 235 247
243 243 237 237 231 230 228 224 216 211 214 207 204 224 222 231 231 173 196 217 220 215 215 216 213 215 208 219 221 231 237 232 243